CW5084 Weather Reports


Display with metric or nautical units.
time (UTC)temp
F
wind
direction
speed
MPH
gust
MPH
rain 1hr
in
rain 24hr
in
rain mn
in
humidity
%
barometer
mb
20190222123030 27 306 7.0 11.0 0.00 0.09 0.00 87 3388.5
20190222122029 27 295 3.0 9.0 0.00 0.09 0.00 87 3388.0
20190222121029 27 266 7.0 10.0 0.00 0.10 0.00 86 3388.1
20190222120030 27 272 7.0 10.0 0.00 0.11 0.00 86 3387.2
20190222115029 28 288 8.0 12.0 0.00 0.11 0.00 85 3385.5
20190222114029 28 281 7.0 11.0 0.00 0.11 0.00 85 3385.6
20190222113029 28 273 7.0 11.0 0.00 0.11 0.00 85 3385.3
20190222112029 28 277 6.0 9.0 0.00 0.11 0.00 85 3384.6
20190222111029 28 306 7.0 10.0 0.00 0.11 0.00 85 3384.7
20190222110029 28 284 4.0 13.0 0.00 0.11 0.00 84 3384.2
20190222105030 28 281 9.0 13.0 0.00 0.11 0.00 84 3383.6
20190222104028 28 296 5.0 9.0 0.00 0.11 0.00 83 3383.1
20190222103029 28 315 4.0 13.0 0.00 0.11 0.00 83 3382.9
20190222102028 28 275 8.0 14.0 0.00 0.11 0.00 83 3383.1
20190222101028 28 308 12.0 14.0 0.00 0.11 0.00 84 3383.1
20190222100028 28 313 12.0 13.0 0.00 0.11 0.00 84 3382.2
20190222095028 28 305 3.0 14.0 0.00 0.11 0.00 84 3381.1
20190222094028 28 285 8.0 16.0 0.00 0.11 0.00 84 3381.6
20190222093028 29 257 3.0 9.0 0.00 0.11 0.00 85 3381.0
20190222092028 29 273 6.0 8.0 0.00 0.11 0.00 85 3380.4
20190222091028 29 284 0.0 8.0 0.00 0.11 0.00 85 3379.8
20190222090028 29 276 3.0 8.0 0.00 0.11 0.00 85 3379.1
20190222085028 29 277 3.0 7.0 0.00 0.11 0.00 85 3379.1
20190222084028 29 279 3.0 11.0 0.00 0.11 0.00 85 3378.2
20190222083028 29 257 2.0 7.0 0.00 0.11 0.00 84 3378.4
20190222082027 29 276 0.0 9.0 0.00 0.11 0.00 84 3377.7
20190222081027 29 277 3.0 11.0 0.00 0.11 0.00 84 3377.9
20190222080027 29 319 0.0 9.0 0.00 0.11 0.00 83 3377.5
20190222075027 29 284 4.0 9.0 0.00 0.11 0.00 83 3376.9
20190222074027 29 282 1.0 9.0 0.00 0.11 0.00 82 3376.8
20190222073027 29 279 7.0 11.0 0.00 0.11 0.00 82 3376.8
20190222072027 29 300 8.0 11.0 0.00 0.11 0.00 82 3376.6
20190222071027 29 275 6.0 11.0 0.00 0.11 0.00 82 3375.9
20190222070026 29 286 10.0 12.0 0.00 0.11 0.00 81 3376.1
20190222065026 29 287 8.0 13.0 0.00 0.11 0.00 81 3376.3
20190222064026 29 316 8.0 12.0 0.00 0.11 0.00 80 3376.6
20190222063026 29 302 5.0 13.0 0.00 0.11 0.00 80 3376.1
20190222062026 30 265 12.0 12.0 0.00 0.11 0.00 79 3376.6
20190222061026 30 284 4.0 14.0 0.00 0.11 0.00 78 3376.2
20190222060026 30 308 8.0 16.0 0.00 0.11 0.00 78 3376.0
20190222055026 30 299 3.0 12.0 0.00 0.11 0.00 78 3375.4
20190222054026 30 302 5.0 15.0 0.00 0.11 0.00 77 3375.0
20190222053026 30 276 8.0 15.0 0.00 0.11 0.00 77 3375.2
20190222052026 30 287 3.0 16.0 0.00 0.11 0.00 77 3374.0
20190222051026 30 305 9.0 13.0 0.00 0.11 0.00 77 3373.5
20190222050026 31 276 7.0 16.0 0.00 0.11 0.00 76 3373.3
20190222045026 31 282 3.0 17.0 0.00 0.11 0.11 76 3372.5
20190222044025 31 304 11.0 16.0 0.00 0.11 0.11 75 3372.2
20190222043026 31 319 10.0 19.0 0.00 0.11 0.11 75 3371.9
20190222042025 32 304 14.0 18.0 0.00 0.11 0.11 75 3372.2
20190222041025 32 313 5.0 18.0 0.00 0.11 0.11 77 3371.0
20190222040025 32 298 8.0 14.0 0.00 0.11 0.11 77 3371.0
20190222035025 32 282 9.0 14.0 0.00 0.11 0.11 78 3370.2
20190222034025 32 255 9.0 15.0 0.00 0.11 0.11 78 3370.1
20190222033025 32 307 8.0 12.0 0.00 0.11 0.11 79 3370.2
20190222032025 32 284 6.0 16.0 0.00 0.11 0.11 79 3369.8
20190222031024 32 277 8.0 14.0 0.00 0.11 0.11 79 3369.6
20190222030024 32 268 9.0 15.0 0.00 0.11 0.11 79 3369.8
20190222025024 32 265 10.0 15.0 0.00 0.11 0.11 78 3369.5
20190222024024 32 294 10.0 16.0 0.00 0.11 0.11 78 3369.4
20190222023024 32 267 16.0 16.0 0.00 0.11 0.11 78 3368.7
20190222022024 32 296 4.0 17.0 0.00 0.11 0.11 77 3368.0
20190222021024 32 291 9.0 17.0 0.00 0.11 0.11 76 3367.7
20190222020025 32 287 9.0 19.0 0.00 0.11 0.11 76 3366.8
20190222015023 32 298 7.0 16.0 0.00 0.11 0.11 76 3366.7
20190222014023 33 261 13.0 18.0 0.00 0.11 0.11 76 3367.1
20190222013023 33 302 11.0 16.0 0.00 0.11 0.11 76 3366.9
20190222012023 33 273 9.0 14.0 0.00 0.11 0.11 76 3367.2
20190222011023 33 284 9.0 15.0 0.00 0.11 0.11 76 3366.9
20190222010023 33 297 4.0 12.0 0.00 0.11 0.11 76 3366.9
20190222005023 33 265 8.0 15.0 0.00 0.11 0.11 75 3366.3
20190222004023 33 296 10.0 19.0 0.00 0.11 0.11 75 3365.6
20190222003023 33 280 8.0 15.0 0.00 0.11 0.11 75 3364.8
20190222002023 33 295 15.0 19.0 0.00 0.11 0.11 75 3365.8
20190222001022 33 264 10.0 19.0 0.00 0.11 0.11 75 3365.2
20190222000023 33 286 10.0 23.0 0.00 0.11 0.11 74 3363.2
20190221235023 33 257 13.0 19.0 0.00 0.11 0.11 74 3362.8
20190221234022 33 270 13.0 20.0 0.00 0.11 0.11 74 3362.8
20190221233022 33 252 14.0 19.0 0.00 0.11 0.11 74 3362.6
20190221232022 33 300 7.0 16.0 0.00 0.11 0.11 74 3362.7
20190221231022 33 286 7.0 17.0 0.00 0.11 0.11 75 3361.8
20190221230022 33 238 9.0 17.0 0.00 0.11 0.11 74 3361.4
20190221225022 34 294 10.0 18.0 0.00 0.11 0.11 74 3359.3
20190221224021 34 313 5.0 17.0 0.00 0.11 0.11 73 3358.0
20190221223021 34 268 13.0 19.0 0.00 0.11 0.11 73 3357.4
20190221222021 34 306 8.0 20.0 0.00 0.11 0.11 72 3357.9
20190221221021 34 253 8.0 38.0 0.00 0.11 0.11 70 3357.4
20190221220021 35 271 16.0 26.0 0.00 0.11 0.11 70 3357.2
20190221215021 35 270 17.0 26.0 0.00 0.11 0.11 69 3357.0
20190221214021 35 252 8.0 19.0 0.00 0.11 0.11 71 3357.7
20190221213021 35 269 11.0 24.0 0.00 0.11 0.11 72 3356.7
20190221212021 35 244 21.0 23.0 0.00 0.11 0.11 72 3357.3
20190221211021 35 279 11.0 19.0 0.00 0.11 0.11 72 3356.5
20190221210021 35 273 13.0 18.0 0.00 0.11 0.11 72 3355.7
20190221205021 35 250 3.0 20.0 0.00 0.11 0.11 71 3354.9
20190221204020 36 265 9.0 26.0 0.00 0.11 0.11 71 3354.9
20190221203020 36 263 16.0 22.0 0.00 0.11 0.11 71 3354.1
20190221202020 35 295 19.0 24.0 0.00 0.11 0.11 71 3353.9
20190221201020 36 267 18.0 23.0 0.01 0.11 0.11 72 3353.6
20190221200020 36 215 10.0 20.0 0.01 0.11 0.11 71 3353.2
20190221195020 36 280 14.0 23.0 0.01 0.11 0.11 71 3352.8
20190221194020 36 253 16.0 25.0 0.01 0.11 0.11 71 3352.1
20190221193020 36 257 14.0 25.0 0.01 0.11 0.11 71 3351.5
20190221192020 36 296 14.0 26.0 0.02 0.11 0.11 71 3350.7
20190221191020 36 288 14.0 26.0 0.01 0.10 0.10 71 3350.9
20190221190021 36 260 14.0 26.0 0.01 0.10 0.10 71 3351.5
20190221185019 36 256 11.0 28.0 0.01 0.10 0.10 70 3350.6
20190221184019 36 264 13.0 23.0 0.01 0.10 0.10 70 3350.5
20190221183019 36 273 15.0 26.0 0.01 0.10 0.10 71 3349.8
20190221182019 36 258 14.0 23.0 0.01 0.09 0.09 72 3349.9
20190221181019 36 228 13.0 20.0 0.01 0.09 0.09 74 3350.5
20190221180019 36 250 5.0 23.0 0.01 0.09 0.09 74 3350.2
20190221175019 36 260 18.0 26.0 0.01 0.09 0.09 74 3350.3
20190221174019 36 277 13.0 27.0 0.01 0.09 0.09 73 3350.1
20190221173018 36 269 10.0 26.0 0.01 0.09 0.09 73 3350.4
20190221172018 36 244 9.0 24.0 0.01 0.08 0.08 73 3349.9
20190221171018 36 251 9.0 22.0 0.01 0.08 0.08 73 3349.7
20190221170018 36 243 22.0 22.0 0.01 0.08 0.08 72 3350.7
20190221165018 36 235 13.0 25.0 0.01 0.08 0.08 72 3350.3
20190221164018 36 268 9.0 25.0 0.01 0.08 0.08 73 3350.5
20190221163018 36 252 13.0 23.0 0.01 0.08 0.08 73 3350.1
20190221162017 36 240 12.0 26.0 0.01 0.07 0.07 74 3349.8
20190221161018 36 235 19.0 25.0 0.01 0.07 0.07 74 3349.3
20190221160018 36 263 14.0 31.0 0.01 0.07 0.07 74 3348.4
20190221155017 36 259 17.0 26.0 0.01 0.07 0.07 74 3347.7
20190221154017 37 272 20.0 27.0 0.02 0.07 0.07 77 3347.2
20190221153017 36 240 14.0 23.0 0.02 0.07 0.07 77 3346.8
20190221152017 36 242 16.0 22.0 0.01 0.06 0.06 78 3346.1
20190221151017 36 282 10.0 19.0 0.01 0.06 0.06 79 3345.6
20190221150017 36 230 7.0 20.0 0.02 0.06 0.06 78 3346.3
20190221145017 36 245 11.0 18.0 0.02 0.06 0.06 78 3345.7
20190221144017 36 250 8.0 21.0 0.01 0.05 0.05 80 3344.9
20190221143016 36 232 15.0 16.0 0.01 0.05 0.05 81 3345.1
20190221142016 36 216 6.0 14.0 0.02 0.05 0.05 80 3345.1
20190221141016 36 272 8.0 19.0 0.02 0.05 0.05 81 3345.0
20190221140016 36 223 14.0 20.0 0.01 0.04 0.04 81 3344.7
20190221135015 36 255 9.0 20.0 0.01 0.04 0.04 81 3344.3
20190221134016 36 276 10.0 20.0 0.01 0.04 0.04 81 3344.3
20190221133015 36 240 14.0 20.0 0.02 0.04 0.04 81 3343.5
20190221132016 36 252 8.0 19.0 0.01 0.03 0.03 82 3344.0
20190221131015 36 273 9.0 17.0 0.02 0.03 0.03 83 3343.0
20190221130015 36 267 13.0 20.0 0.03 0.03 0.03 83 3343.5
20190221125015 36 275 12.0 19.0 0.03 0.03 0.03 84 3343.5
20190221124015 36 250 7.0 19.0 0.03 0.03 0.03 85 3342.7